This is the latest recevied weather packets stored in our database for station/object OK1KKY-18. If no packets are shown the sender has not sent any weather packets the latest 10 day(s).
| Time | Temp. | Humidity | Pressure | Rain* | Wind** | Luminosity | Snow |
|---|---|---|---|---|---|---|---|
| 1787597234 | 10.56° C | 89% | 1022.1 hPa | - | - | - | - |
| 1787596634 | 11.11° C | 90% | 1022.1 hPa | - | - | - | - |
| 1787596034 | 11.11° C | 87% | 1022.2 hPa | - | - | - | - |
| 1787595434 | 11.67° C | 87% | 1022.1 hPa | - | - | - | - |
| 1787594834 | 11.67° C | 87% | 1022 hPa | - | - | - | - |
| 1787594234 | 12.22° C | 86% | 1022 hPa | - | - | - | - |
| 1787593634 | 12.78° C | 83% | 1021.9 hPa | - | - | - | - |
| 1787593034 | 12.78° C | 80% | 1022 hPa | - | - | - | - |
| 1787592434 | 13.33° C | 80% | 1022 hPa | - | - | - | - |
| 1787591834 | 13.89° C | 80% | 1022.1 hPa | - | - | - | - |
| 1787591234 | 14.44° C | 78% | 1022.2 hPa | - | - | - | - |
| 1787590634 | 14.44° C | 79% | 1022.2 hPa | - | - | - | - |
| 1787590034 | 14.44° C | 72% | 1022.2 hPa | - | - | - | - |
| 1787589434 | 15° C | 76% | 1022.2 hPa | - | - | - | - |
| 1787588834 | 15.56° C | 73% | 1022.1 hPa | - | - | - | - |
| 1787588234 | 16.11° C | 72% | 1022.2 hPa | - | - | - | - |
| 1787587633 | 16.11° C | 63% | 1022.2 hPa | - | - | - | - |
| 1787587034 | 16.11° C | 66% | 1022.3 hPa | - | - | - | - |
| 1787586434 | 16.67° C | 67% | 1022.3 hPa | - | - | - | - |
| 1787585834 | 16.67° C | 65% | 1022.3 hPa | - | - | - | - |
| 1787585234 | 17.22° C | 56% | 1022.3 hPa | - | - | - | - |
| 1787584634 | 17.78° C | 60% | 1022.5 hPa | - | - | - | - |
| 1787584034 | 17.78° C | 58% | 1022.5 hPa | - | - | - | - |
| 1787583434 | 17.22° C | 59% | 1022.7 hPa | - | - | - | - |
| 1787582834 | 17.22° C | 61% | 1022.7 hPa | - | - | - | - |
* Rain since midnight (hover to see other rain measurements)
** Current wind speed in m/s (hover to see current wind gust speed)